Theta_e
283 283 282 282 282 282 282 282 282 283 284 283 283 283 283 283 284 283 283 282 281 281 281 281 280 280 280 280 281 280 279 279 276 278 280 281 280 280 281 281 282 281 281
283 282 281 281 281 281 281 281 282 281 282 282 282 281 281 281 282 282 282 282 280 280 280 280 279 279 278 279 280 278 278 278 277 276 278 279 279 279 279 278 278 280 279
282 281 280 280 280 280 280 280 281 280 280 280 280 280 280 280 280 282 282 282 281 280 280 279 279 279 278 278 278 278 278 278 278 277 277 279 278 279 277 277 277 278 278
282 281 280 280 280 280 280 280 280 280 279 279 279 279 279 279 280 281 282 281 281 281 281 280 280 279 278 278 278 277 277 278 277 277 276 276 276 277 276 274 274 276 276
280 280 279 280 279 280 280 279 279 279 278 279 279 279 279 279 279 281 281 281 280 279 280 279 280 280 280 279 278 277 278 277 276 276 274 274 275 274 272 273 273 274 275
280 280 279 279 279 279 279 279 278 277 277 277 277 277 277 278 280 281 281 279 278 278 278 278 278 279 279 279 279 280 280 276 275 275 274 273 273 273 273 273 272 271 269
280 280 279 278 278 279 279 278 277 276 276 276 276 276 276 276 279 280 280 279 278 278 277 276 276 277 278 277 278 279 279 278 278 276 273 273 272 273 273 272 271 271 270
279 278 278 277 277 277 277 277 276 275 275 275 275 276 275 276 278 279 279 278 277 277 277 276 276 276 276 276 277 278 276 276 275 275 276 275 275 275 274 273 272 270 270
277 277 277 276 276 276 276 275 275 274 274 275 276 275 274 274 276 278 278 277 276 276 276 276 276 275 276 279 278 275 274 273 276 277 277 276 276 275 274 271 267 267 265
276 277 276 276 276 275 275 275 274 274 274 274 274 274 273 273 275 277 277 276 275 275 275 276 277 276 278 279 276 274 271 271 273 271 270 270 270 270 271 269 268 265 264
277 276 275 275 274 275 274 273 272 272 272 271 271 272 272 272 273 276 277 276 275 275 275 274 275 277 278 277 277 273 272 274 269 267 266 266 267 268 268 268 267 266 264
275 274 273 272 273 274 270 270 270 269 269 268 268 269 271 272 273 274 276 276 277 275 274 274 275 277 276 275 274 273 273 271 266 264 264 264 264 265 265 265 266 266 266
272 271 270 270 271 271 269 269 269 268 268 268 269 269 269 271 271 273 274 275 276 275 275 275 274 274 272 270 269 270 267 265 264 262 262 263 264 264 264 264 264 264 263
270 270 269 268 269 268 270 270 268 268 267 268 268 268 268 269 269 270 271 272 273 274 274 269 269 268 267 267 264 264 263 263 262 261 261 262 263 262 261 262 261 261 259
270 269 270 270 268 269 269 269 269 269 269 266 266 267 267 267 268 274 274 274 273 275 265 261 261 260 260 261 261 261 261 262 260 261 260 260 260 260 260 261 260 259 257
270 270 270 269 268 268 268 268 273 274 275 276 277 274 272 273 274 274 275 275 275 274 261 258 258 259 258 259 259 259 260 259 260 260 259 258 258 257 258 258 258 257 255
270 269 268 268 267 266 265 265 265 267 271 273 273 273 273 273 273 273 273 274 270 264 257 257 257 257 257 258 258 258 257 258 258 257 257 257 257 256 256 255 256 256 255
267 266 267 267 267 265 265 265 264 263 263 265 268 269 270 271 271 271 271 265 259 258 254 254 254 255 255 255 256 255 256 256 256 256 255 255 255 254 254 254 254 254 254
266 266 266 265 264 264 263 262 262 261 261 261 260 263 264 266 267 268 266 256 254 254 253 253 254 254 254 254 254 254 254 253 254 253 253 253 253 253 252 253 253 252 252
265 266 264 263 261 260 260 260 259 260 260 260 259 258 257 256 256 256 255 253 252 252 253 252 253 253 252 252 252 252 252 252 252 252 252 253 253 252 251 251 252 251 252
263 261 262 260 260 260 260 260 261 261 260 257 257 256 264 256 255 253 252 252 251 252 252 251 251 251 251 250 250 250 250 251 251 251 251 251 252 250 252 252 251 252 252
262 259 258 259 259 259 259 260 260 259 257 256 254 254 264 252 251 251 250 250 251 251 251 250 250 250 250 250 250 250 249 250 250 250 250 250 251 251 251 251 251 252 252
259 258 257 254 257 257 258 258 257 256 254 252 252 252 250 250 249 249 249 250 250 250 250 248 248 248 249 249 250 249 249 249 250 251 250 250 250 251 251 251 252 252 252
258 258 258 256 256 257 258 256 254 253 252 252 250 250 249 248 248 248 248 249 248 249 248 247 247 247 248 248 250 249 249 249 250 249 249 249 249 250 251 251 252 252 253
256 256 256 257 257 257 254 253 251 251 251 250 249 248 247 247 247 248 248 248 246 246 247 247 248 247 247 247 248 248 249 251 250 251 250 250 250 250 251 251 252 253 253
256 256 257 256 256 255 254 252 252 251 250 249 248 247 247 247 248 247 247 246 246 246 247 247 248 247 247 248 248 250 253 256 256 256 256 254 253 253 254 254 254 254 255
Wind_Speed
6 6 6 5 5 5 4 4 3 4 4 5 5 5 5 5 5 5 4 5 6 5 5 6 6 7 6 6 5 6 7 9 12 11 11 12 15 15 12 12 13 13 13
5 6 5 4 4 4 3 3 3 4 4 4 4 4 5 4 4 5 4 4 5 7 7 7 7 6 7 6 6 9 8 10 10 17 14 11 13 15 13 16 12 10 13
5 5 4 4 3 3 3 3 4 4 3 3 4 4 4 5 4 4 5 5 5 6 6 7 7 7 7 6 8 7 9 9 10 11 13 10 10 10 13 12 13 13 11
4 4 4 3 3 2 3 3 3 3 2 2 3 3 4 4 4 6 7 7 6 6 7 8 7 7 9 8 8 10 10 10 10 10 11 10 11 11 10 13 13 10 12
5 4 4 3 2 2 2 2 2 1 0 1 3 3 4 4 3 6 7 7 8 10 8 9 9 8 12 11 8 11 11 9 10 10 10 11 10 11 13 11 12 13 11
4 4 3 3 2 2 2 2 1 1 2 2 3 3 4 4 8 10 9 8 9 9 9 10 10 8 9 12 17 18 15 10 12 10 11 12 13 12 11 11 11 12 13
4 4 4 3 3 3 3 3 3 2 2 3 3 3 4 5 9 11 12 8 8 8 9 9 9 7 8 11 15 19 8 12 15 13 13 12 14 14 14 13 13 12 12
4 5 5 4 3 3 3 4 3 2 3 3 4 3 4 5 10 11 12 8 8 8 8 9 9 9 10 13 13 7 8 10 12 10 11 11 12 14 14 13 14 14 12
6 5 5 5 5 4 4 4 4 3 3 3 3 4 5 6 10 12 11 8 8 9 8 9 8 10 15 19 11 11 11 11 14 17 14 19 22 21 16 10 9 10 11
7 6 5 5 5 5 5 4 3 3 3 3 4 5 5 7 9 12 10 7 8 7 8 9 10 11 19 17 11 10 12 13 12 9 10 12 13 13 15 9 9 9 10
5 5 5 5 6 5 4 3 3 3 3 3 6 5 5 6 7 11 12 8 6 7 7 7 7 17 17 19 18 10 13 17 9 8 9 8 8 8 7 7 9 9 9
5 5 5 5 4 4 5 3 3 3 3 4 4 5 4 4 7 10 13 12 12 7 8 6 8 14 18 19 17 20 20 15 8 7 8 8 8 8 8 9 10 10 9
4 6 4 4 4 4 4 4 3 4 4 4 4 5 4 4 5 10 13 12 13 9 6 11 11 14 16 12 14 17 10 7 7 8 8 8 8 9 11 10 9 11 12
6 5 4 5 5 4 4 4 4 4 4 4 4 5 5 4 5 5 6 6 10 9 7 3 7 11 11 11 7 8 6 7 7 8 8 9 9 8 9 8 9 9 10
5 4 5 4 5 5 6 5 6 5 5 4 4 5 5 5 4 10 10 6 5 5 3 2 4 5 7 7 7 7 7 7 7 8 8 9 9 9 9 8 8 8 7
6 5 5 5 5 5 5 4 10 12 12 14 14 8 4 10 13 14 15 16 15 13 3 3 4 5 7 7 8 8 8 8 8 8 8 9 9 9 9 9 8 8 9
9 5 4 5 5 4 4 5 5 3 5 8 9 10 11 11 13 12 14 14 10 8 1 3 5 6 7 7 7 8 9 8 8 8 9 9 9 8 9 9 9 9 9
7 6 5 5 5 5 5 5 3 4 3 3 5 6 10 11 10 12 12 8 5 4 1 4 5 6 6 7 7 8 8 8 8 8 8 8 8 8 9 9 9 9 10
5 5 5 5 4 4 4 4 4 4 4 4 2 4 4 8 9 7 6 1 2 3 3 5 5 6 6 7 7 7 8 8 8 7 7 7 7 7 8 8 9 12 11
5 7 5 4 4 4 4 4 4 4 4 4 3 3 1 1 1 2 1 1 3 4 5 5 6 6 6 6 6 6 7 7 7 7 7 7 7 7 8 9 8 9 9
4 4 5 3 4 5 5 6 5 4 4 3 3 3 7 3 3 3 3 3 3 4 5 5 6 6 6 6 6 6 7 8 7 7 7 7 7 8 7 8 8 8 9
4 4 4 5 4 4 5 5 4 4 3 3 2 2 6 1 2 3 4 4 5 5 4 5 6 6 6 7 7 7 7 8 8 7 7 7 7 7 7 8 8 8 9
4 5 4 3 4 5 4 4 3 4 3 3 3 3 2 3 3 3 4 5 5 5 4 4 5 7 6 6 6 7 8 9 8 7 8 8 8 8 7 9 9 9 9
4 4 5 4 4 4 4 4 3 4 4 4 4 4 4 3 4 5 5 4 4 5 4 5 5 8 9 8 7 7 8 9 8 8 9 8 9 9 8 9 9 11 11
4 5 4 4 4 4 3 3 4 4 4 4 4 3 3 3 4 5 4 4 4 5 7 6 6 9 10 12 12 14 14 16 12 11 8 10 12 13 11 10 12 12 13
4 4 4 4 4 4 4 4 4 4 4 4 4 4 4 4 4 4 4 4 5 5 7 7 9 11 13 11 13 14 16 16 13 15 11 10 10 10 10 12 16 11 13
Wind_Direction
103 100 96 90 86 84 85 79 74 73 62 59 54 54 49 41 35 40 36 34 26 14 10 3 353 346 337 329 321 325 316 314 300 303 312 316 324 330 328 329 325 327 324
118 102 99 105 106 104 97 86 81 73 61 60 52 44 32 25 16 21 6 353 358 354 347 343 337 334 332 328 326 321 313 310 302 308 313 317 324 324 328 330 333 324 326
127 130 134 136 131 116 104 85 73 70 61 48 45 37 18 6 357 340 343 342 328 314 308 313 317 317 324 321 328 320 314 305 305 303 308 315 319 319 328 328 331 320 325
148 155 156 153 146 135 118 97 88 72 55 29 32 18 7 336 328 338 329 324 306 298 297 308 307 310 315 308 311 320 310 304 317 304 302 316 319 333 325 328 327 323 325
168 165 172 157 146 134 115 107 87 73 46 5 6 357 344 328 336 321 322 319 316 318 313 317 311 306 296 296 311 310 308 320 317 310 319 313 318 334 333 327 314 318 320
177 184 171 175 172 168 174 175 188 235 345 354 345 340 324 327 322 331 322 325 323 312 317 321 316 294 305 308 311 306 306 323 318 314 313 312 325 327 321 317 316 318 322
185 186 191 194 206 204 203 218 231 279 323 309 299 301 320 326 318 319 325 321 317 312 307 312 318 318 308 311 298 300 307 306 317 315 306 313 319 322 314 315 314 311 309
198 200 200 202 222 222 219 231 225 240 255 272 287 297 317 305 318 319 321 320 308 296 299 303 307 310 314 309 301 319 317 317 312 307 298 306 309 315 316 311 314 308 298
215 217 211 203 217 219 223 225 221 227 248 262 284 307 295 300 316 319 320 313 302 298 302 301 299 311 312 311 328 325 322 313 313 308 316 314 315 319 316 322 313 313 308
219 220 210 201 211 219 220 217 211 220 256 281 285 280 290 303 311 313 314 307 302 303 298 301 307 312 317 325 331 331 319 316 311 325 314 314 318 312 318 320 315 308 313
217 212 209 207 211 213 199 189 199 231 265 278 280 283 287 277 297 309 310 305 301 295 307 307 307 310 318 329 326 335 307 309 340 324 315 312 313 308 314 316 312 305 302
206 212 214 199 199 187 190 201 210 226 250 265 284 291 266 264 273 300 306 308 304 312 306 306 297 314 327 326 326 312 315 333 317 315 312 314 316 314 315 312 306 298 292
182 217 210 198 201 186 192 214 224 222 232 252 265 278 283 259 259 292 306 302 309 306 299 304 341 334 327 320 315 321 344 320 316 313 309 309 312 310 309 307 303 301 293
211 219 201 203 207 210 214 210 212 220 231 249 255 263 273 272 272 276 271 273 278 291 310 8 330 332 329 327 321 328 322 317 313 304 302 304 307 308 307 313 311 317 309
220 208 215 206 205 215 218 208 217 215 204 215 230 234 249 269 263 290 308 301 288 302 101 9 345 343 331 325 323 319 316 314 311 306 306 307 308 310 310 315 308 310 296
225 212 213 208 206 215 220 243 248 244 242 248 259 248 229 260 299 302 311 312 322 350 26 340 320 319 312 312 310 308 308 308 309 309 305 304 307 310 309 310 305 299 299
226 209 195 201 205 204 208 214 230 245 273 254 259 267 274 286 297 305 309 315 359 28 2 305 303 302 300 301 301 302 302 305 307 300 302 303 305 304 307 306 304 301 296
221 208 196 202 206 201 207 210 196 205 225 239 258 266 282 293 303 305 306 25 344 355 285 288 289 290 294 297 299 298 299 301 302 301 301 300 297 300 301 297 299 297 299
211 218 208 209 204 196 182 189 200 205 224 236 265 288 331 306 305 318 10 103 271 289 290 288 279 287 291 292 292 293 292 293 296 297 294 291 294 296 294 293 294 293 293
218 220 191 192 175 184 187 192 200 210 223 232 231 239 272 11 316 287 290 252 258 259 265 269 278 278 281 282 288 289 291 292 294 291 290 291 293 288 288 290 292 295 296
195 197 185 167 186 194 189 203 208 205 222 209 233 220 243 209 258 260 285 281 272 280 279 278 285 283 283 280 279 283 282 286 284 280 284 284 286 287 284 285 284 284 285
184 177 177 193 180 191 202 200 200 197 204 219 247 275 300 116 255 269 276 272 267 261 263 268 278 276 278 280 285 283 280 281 283 279 280 281 280 280 281 281 283 282 283
173 178 177 181 186 185 192 185 180 193 207 214 230 253 248 254 261 263 264 269 272 277 276 263 268 280 277 269 262 256 265 270 270 270 278 284 283 279 276 278 280 282 281
165 174 182 195 182 183 177 190 193 178 190 211 222 242 255 262 268 267 269 276 278 281 274 272 266 268 281 278 274 265 251 256 257 259 249 261 269 276 269 270 272 274 273
167 178 183 180 187 186 170 179 183 193 206 213 230 237 252 258 269 271 274 275 277 285 289 283 277 273 271 274 275 273 269 274 263 256 252 249 255 262 263 266 269 273 270
173 178 184 169 172 173 177 180 198 199 209 217 221 230 243 258 267 276 282 285 285 286 288 283 280 276 280 280 274 275 279 282 280 266 245 243 250 259 258 260 266 264 269